{"data":{"norad_id":66363,"epoch":"2026-05-24T17:35:27.750912Z","epoch_age_seconds":98899,"freshness":"FRESH","line1":"1 66363U 25254R   26144.73296008  .00020999  00000+0  71915-3 0  9998","line2":"2 66363  53.1590 239.5656 0001166  75.3551 284.7579 15.30198304 30611","mean_motion":15.30198304,"eccentricity":0.0001166,"inclination_deg":53.159,"raan_deg":239.5656,"arg_perigee_deg":75.3551,"mean_anomaly_deg":284.7579,"bstar":0.00071915,"rev_number":3061,"period_min":94.105450008393,"perigee_km":474.42103193254,"apogee_km":476.01923481605,"semimajor_km":6853.3571333743,"source":"CELESTRAK","updated_at":"2026-05-25T13:38:21.177123Z"}}